This demonstration page uses our WeatherBlox Daily Observations layout. Learn more.

Left ArrowRight Arrow

39.08367, -84.50855

Hourly Observations for April 6, 2017

Temp ( °F °C ) Dew Point ( °F °C ) Humidity (%) Winds ( mph kmh ) Pressure ( in mb ) Visibility ( mi km ) Precip ( " mm )
12:53 am 00:53 Mostly Cloudy 58 14.4 53 11.7 84 84 WSW 15 24 29.45 997 10 16.0934 0 0
1:53 am 01:53 Clear 56 13.3 48 8.9 75 75 SSW 12 19 29.44 997 10 16.0934 0 0
2:53 am 02:53 Cloudy 54 12.2 48 8.9 80 80 SSW 13 20 29.41 996 10 16.0934 0 0
3:53 am 03:53 Cloudy 55 12.8 48 8.9 77 77 SSW 18 30 29.41 996 10 16.0934 0 0
4:53 am 04:53 Cloudy 54 12.2 49 9.4 83 83 SSW 17 28 29.4 996 10 16.0934 0 0
5:00 am 05:00 Cloudy 54 12 48 9 82 82 SW 16 26 29.41 996 10 16.0934 0 0
5:53 am 05:53 Cloudy with Light Rain 52 11.1 48 8.9 86 86 SW 18 30 29.4 996 10 16.0934 0 0.0254
6:11 am 06:11 Cloudy 52 11.1 47 8.3 83 83 SW 16 26 29.41 996 10 16.0934 0 0.0254
6:24 am 06:24 Cloudy with Light Rain 52 11 48 9 88 88 SW 14 22 29.41 996 10 16.0934 0 0
6:53 am 06:53 Cloudy with Light Rain 50 10 48 8.9 93 93 SW 14 22 29.41 996 7 11.26538 0.03 0.762
7:14 am 07:14 Cloudy with Rain 50 10 48 9 94 94 WSW 16 26 29.44 997 2 3.21868 0 0
7:27 am 07:27 Cloudy with Rain 47 8.3 46 7.8 97 97 NW 10 17 29.47 998 2 3.21868 0.08 2.032
7:37 am 07:37 Cloudy with Light Rain 47 8.3 45 7.2 93 93 NW 8 13 29.5 999 2 3.21868 0.09 2.286
7:53 am 07:53 Cloudy with Light Rain 47 8.3 45 7.2 93 93 NW 9 15 29.46 998 7 11.26538 0.1 2.54
8:18 am 08:18 Cloudy with Light Rain 46 8 45 7 93 93 WNW 9 15 29.5 999 7 11.26538 0 0
8:53 am 08:53 Cloudy with Light Rain 46 7.8 44 6.7 93 93 WNW 8 13 29.49 999 6 9.65604 0.04 1.016
9:53 am 09:53 Cloudy 44 6.7 41 5 89 89 W 18 30 29.52 1000 10 16.0934 0 0.0254
10:15 am 10:15 Cloudy 43 6.1 41 5 93 93 W 12 19 29.56 1001 10 16.0934 0 0
10:53 am 10:53 Cloudy with Light Rain 42 5.6 38 3.3 85 85 NW 8 13 29.56 1001 10 16.0934 0 0.0254
11:53 am 11:53 Cloudy with Light Rain 43 6.1 38 3.3 82 82 W 14 22 29.59 1002 10 16.0934 0 0.0254
12:53 pm 12:53 Cloudy with Light Rain 44 6.7 39 3.9 83 83 NW 10 17 29.6 1002 10 16.0934 0.01 0.254
1:53 pm 13:53 Cloudy 46 7.8 40 4.4 79 79 WNW 12 19 29.61 1003 10 16.0934 0.01 0.254
2:36 pm 14:36 Cloudy with Light Rain 46 8 39 4 76 76 WNW 13 20 29.65 1004 10 16.0934 0 0
2:53 pm 14:53 Cloudy with Light Rain 47 8.3 41 5 80 80 WNW 13 20 29.62 1003 10 16.0934 0 0.0254
3:53 pm 15:53 Cloudy 47 8.3 40 4.4 77 77 W 16 26 29.63 1004 10 16.0934 0.02 0.508
4:53 pm 16:53 Cloudy with Light Rain 45 7.2 40 4.4 83 83 WNW 16 26 29.67 1005 10 16.0934 0.01 0.254
5:53 pm 17:53 Cloudy with Light Rain 43 6.1 39 3.9 86 86 WNW 14 22 29.72 1007 5 8.0467 0.02 0.508
6:53 pm 18:53 Cloudy with Light Rain 44 6.7 37 2.8 76 76 NW 13 20 29.77 1008 9 14.48406 0.01 0.254
7:00 pm 19:00 Cloudy with Light Rain 45 7 37 3 76 76 WNW 13 20 29.8 1009 10 16.0934 0 0
7:08 pm 19:08 Cloudy with Light Rain 45 7 37 3 76 76 NW 8 13 29.8 1009 10 16.0934 0 0
7:53 pm 19:53 Cloudy with Light Rain 43 6.1 38 3.3 82 82 VRB 7 11 29.79 1009 10 16.0934 0 0.0254
8:53 pm 20:53 Cloudy with Light Rain 43 6.1 35 1.7 74 74 NW 17 28 29.83 1010 10 16.0934 0.01 0.254
9:53 pm 21:53 Cloudy with Light Rain 43 6.1 34 1.1 71 71 WNW 12 19 29.85 1011 10 16.0934 0 0.0254
10:53 pm 22:53 Cloudy 43 6.1 32 0 65 65 NW 21 33 29.88 1012 10 16.0934 0 0.0254
11:53 pm 23:53 Cloudy 42 5.6 31 -0.6 65 65 NNW 9 15 29.88 1012 10 16.0934 0 0

Powered by AerisWeather